Location: Unspecified
(51.0950°N, 12.9690°E)
Time: 18:13:52
(UTC+00:00)

DUCHIFAT 1 - Visible Passes

Search period start: 22 April 2024 00:00
Search period end: 02 May 2024 00:00
Orbit: 542 x 558 km, 98.1° (Epoch: 21 April)

Date Brightness Start Highest point End Pass type
(mag) Time Alt. Az. Time Alt. Az. Time Alt. Az.
22 Apr ? 02:52:38 10° NE 02:55:37 20° E 02:58:35 10° SE visible
23 Apr ? 02:48:33 10° NE 02:51:21 18° E 02:54:07 10° SE visible
24 Apr ? 02:44:27 10° NE 02:47:01 16° E 02:49:34 10° SE visible
25 Apr ? 02:40:20 10° NE 02:42:38 15° E 02:44:55 10° SE visible
26 Apr ? 02:36:13 10° ENE 02:38:11 13° E 02:40:09 10° ESE visible
27 Apr ? 02:32:08 10° ENE 02:33:40 12° E 02:35:13 10° ESE visible
28 Apr ? 02:28:14 10° ENE 02:29:06 11° E 02:30:00 10° E visible
